EW9536 Weather Reports


time (UTC)temp
C
wind
direction
speed
KPH
gust
KPH
rain 1hr
cm
rain 24hr
cm
rain mn
cm
humidity
%
barometer
mb
20260504130518 16 45 6.4 16.1 0.86 0.89 0.89 87 1010.7
20260504110518 21 135 8.0 16.1 0.00 0.00 0.00 67 1011.3
20260504100518 21 45 3.2 8.0 0.00 0.00 0.00 63 1011.7
20260504081517 17 68 3.2 4.8 0.00 0.00 0.00 76 1012.5
20260504080517 17 315 3.2 8.0 0.00 0.00 0.00 75 1012.6
20260504050517 13 225 1.6 3.2 0.00 0.00 0.00 90 1012.7
20260504045517 13 225 1.6 3.2 0.00 0.00 0.00 90 1012.8
20260504044516 13 293 1.6 3.2 0.00 0.00 0.00 89 1012.8
20260504043516 13 293 1.6 3.2 0.00 0.00 0.00 89 1012.9
20260504042516 13 0.0 1.6 0.00 0.00 0.00 90 1012.8
20260504041517 13 0.0 4.8 0.00 0.00 0.00 90 1013.0
20260504040516 13 270 1.6 4.8 0.00 0.00 0.00 90 1013.1
20260504035516 13 293 3.2 4.8 0.00 0.00 0.00 90 1013.2
20260504034537 13 270 3.2 6.4 0.00 0.00 0.00 90 1013.2
20260504033517 13 293 4.8 9.7 0.00 0.00 0.00 90 1013.1
20260504032516 13 293 3.2 6.4 0.00 0.00 0.00 90 1013.0
20260504031516 13 293 3.2 4.8 0.00 0.00 0.00 89 1013.0
20260504030516 13 248 1.6 3.2 0.00 0.00 0.00 89 1013.0
20260504025517 13 180 1.6 3.2 0.00 0.00 0.00 88 1012.9
20260504024516 13 293 1.6 3.2 0.00 0.00 0.00 88 1012.9
20260504023537 14 0.0 1.6 0.00 0.00 0.00 88 1012.9
20260504022536 14 225 1.6 3.2 0.00 0.00 0.00 88 1013.0
20260504021516 14 203 1.6 3.2 0.00 0.00 0.00 88 1013.1
20260504020517 14 0.0 1.6 0.00 0.00 0.00 88 1013.0
20260504015516 14 0.0 3.2 0.00 0.00 0.00 87 1013.1
20260504014516 14 203 1.6 3.2 0.00 0.00 0.00 87 1013.4
20260504013516 14 225 1.6 4.8 0.00 0.00 0.00 87 1013.3
20260504012516 14 0.0 1.6 0.00 0.00 0.00 87 1013.4
20260504011517 14 203 1.6 4.8 0.00 0.00 0.00 87 1013.6
20260504010516 14 203 1.6 3.2 0.00 0.00 0.00 87 1013.5
20260504005516 14 203 1.6 3.2 0.00 0.00 0.00 87 1013.8
20260504004536 14 135 1.6 4.8 0.00 0.00 0.00 87 1013.8
20260504003517 15 158 3.2 6.4 0.00 0.00 0.00 87 1013.7
20260504002516 15 158 1.6 6.4 0.00 0.00 0.00 86 1013.8
20260504001516 15 180 3.2 4.8 0.00 0.00 0.00 87 1013.8
20260504000516 15 158 4.8 8.0 0.00 0.00 0.00 86 1013.8
20260503235517 15 158 4.8 8.0 0.00 0.00 0.00 86 1013.9
20260503234537 15 180 4.8 8.0 0.00 0.00 0.00 86 1013.9
20260503233517 15 180 4.8 8.0 0.00 0.00 0.00 86 1014.0
20260503232516 15 158 4.8 9.7 0.00 0.00 0.00 86 1013.9
20260503231517 15 135 3.2 9.7 0.00 0.00 0.00 85 1014.0
20260503230517 15 203 3.2 6.4 0.00 0.00 0.00 85 1013.9
20260503225516 15 203 3.2 6.4 0.00 0.00 0.00 84 1014.0
20260503224517 15 203 6.4 9.7 0.00 0.00 0.00 84 1014.1
20260503223517 15 203 1.6 6.4 0.00 0.00 0.00 83 1014.0
20260503222537 15 225 3.2 4.8 0.00 0.00 0.00 83 1014.0
20260503221517 15 180 1.6 4.8 0.00 0.00 0.00 83 1013.9
20260503220517 15 158 4.8 9.7 0.00 0.00 0.00 82 1013.9
20260503215517 15 135 1.6 3.2 0.00 0.00 0.00 81 1013.9
20260503214517 15 113 1.6 3.2 0.00 0.00 0.00 81 1014.0
20260503213517 15 113 1.6 4.8 0.00 0.00 0.00 81 1013.9
20260503212537 15 135 4.8 9.7 0.00 0.00 0.00 80 1013.9
20260503211516 15 113 3.2 6.4 0.00 0.00 0.00 81 1014.1
20260503210517 15 113 4.8 9.7 0.00 0.00 0.00 81 1014.1
20260503205517 15 113 3.2 6.4 0.00 0.00 0.00 82 1014.2
20260503204517 15 135 3.2 6.4 0.00 0.00 0.00 81 1014.3
20260503203536 15 135 6.4 9.7 0.00 0.00 0.00 81 1014.3
20260503202516 15 135 4.8 9.7 0.00 0.00 0.00 81 1014.4
20260503201517 15 135 6.4 12.9 0.00 0.00 0.00 80 1014.4
20260503200537 15 113 3.2 6.4 0.00 0.00 0.00 79 1014.3
20260503195516 15 135 4.8 6.4 0.00 0.00 0.00 78 1014.4
20260503194517 15 135 4.8 9.7 0.00 0.00 0.00 78 1014.3
20260503193516 15 158 4.8 9.7 0.00 0.00 0.00 77 1014.2
20260503192517 15 135 4.8 11.3 0.00 0.00 0.00 77 1014.1
20260503191517 15 135 8.0 14.5 0.00 0.00 0.00 76 1013.9
20260503190516 15 135 6.4 14.5 0.00 0.00 0.00 76 1013.7
20260503185516 15 135 6.4 14.5 0.00 0.00 0.00 77 1013.7
20260503184517 15 135 11.3 16.1 0.00 0.00 0.00 77 1013.6
20260503183516 15 135 9.7 17.7 0.00 0.00 0.00 77 1013.7
20260503182516 15 135 8.0 14.5 0.00 0.00 0.00 77 1013.6
20260503181516 16 158 8.0 14.5 0.00 0.00 0.00 78 1013.7
20260503180516 16 158 8.0 17.7 0.00 0.00 0.00 78 1013.7
20260503175518 16 135 9.7 16.1 0.00 0.00 0.00 78 1013.6
20260503174517 16 135 8.0 16.1 0.00 0.00 0.00 78 1013.7
20260503173519 16 158 9.7 17.7 0.00 0.00 0.00 79 1013.9
20260503172538 16 158 11.3 19.3 0.00 0.00 0.00 79 1013.6
20260503171518 16 158 12.9 20.9 0.00 0.00 0.00 79 1013.5
20260503170518 16 158 12.9 24.1 0.00 0.00 0.00 77 1013.4
20260503150518 18 135 9.7 16.1 0.00 0.00 0.00 67 1013.4